EW6911 Denia ES current weather conditions

sailwx.info

Wind from 005

Air temperature 27.2° C
Dewpoint 19.6° C

Last reported at 2020-Sep-19 09:06 UTC.
Time now 2020-Sep-19 09:55 UTC

Location: N 38°52' E 000°03'.
View on Google Maps.

See reports from other nearby stations

  
Tides and Currents Weather Stations Pressure Air Temp Water Temp Dewpoint Dewpoint Depression Visibility Wind Speed Wind Dir Waves Ship Positions
date/time (UTC)wind fromknots sea level pressurealtimeterstation pressurevisibilityair tempwater tempwave heightnotes
2020-Sep-19 09:06 005 27.2
2020-Sep-19 09:01 335 27.2
2020-Sep-19 08:56 327 27.2
2020-Sep-19 08:51 325 27.2
2020-Sep-19 08:46 323 27.2
2020-Sep-19 08:41 321 27.2
2020-Sep-19 08:36 320 27.2
2020-Sep-19 08:31 320 26.7
2020-Sep-19 08:26 319 26.7
2020-Sep-19 08:21 324 26.1
2020-Sep-19 08:16 323 26.1
2020-Sep-19 08:11 317 26.1
2020-Sep-19 08:06 319 25.6
2020-Sep-19 08:01 321 25.6
2020-Sep-19 07:56 281 25.0
2020-Sep-19 07:51 281 25.0
2020-Sep-19 07:46 281 24.4
2020-Sep-19 07:41 281 23.9
2020-Sep-19 07:36 281 23.3
2020-Sep-19 07:31 281 23.3
2020-Sep-19 07:26 289 23.3
2020-Sep-19 07:21 321 23.3
2020-Sep-19 07:16 321 22.8
2020-Sep-19 07:11 321 22.2
2020-Sep-19 07:06 321 21.7
2020-Sep-19 07:01 321 21.1
2020-Sep-19 06:56 321 20.6
2020-Sep-19 06:51 321 20.0
2020-Sep-19 06:46 032 20.0
2020-Sep-19 06:41 032 19.4
2020-Sep-19 06:36 032 19.4
2020-Sep-19 06:31 032 18.9
2020-Sep-19 06:26 251 18.9
2020-Sep-19 06:21 255 18.9
2020-Sep-19 06:16 254 18.3
2020-Sep-19 06:11 255 18.3
2020-Sep-19 06:06 254 18.3
2020-Sep-19 06:01 254 18.3
2020-Sep-19 05:56 254 18.3
2020-Sep-19 05:51 254 18.3
2020-Sep-19 05:46 254 18.3
2020-Sep-19 05:41 254 18.3
2020-Sep-19 05:36 256 18.3
2020-Sep-19 05:31 256 18.3
2020-Sep-19 05:26 256 18.3
2020-Sep-19 05:21 256 18.3
2020-Sep-19 05:16 256 18.3
2020-Sep-19 05:11 256 18.3
2020-Sep-19 05:06 256 18.3
2020-Sep-19 05:01 256 18.3
2020-Sep-19 04:56 256 18.3
2020-Sep-19 04:51 256 18.3
2020-Sep-19 04:46 256 18.3
2020-Sep-19 04:41 256 18.3
2020-Sep-19 04:36 254 18.3
2020-Sep-19 04:31 254 18.3
2020-Sep-19 04:26 254 18.3
2020-Sep-19 04:21 254 18.3
2020-Sep-19 04:16 254 18.3
2020-Sep-19 04:11 254 18.3
2020-Sep-19 04:06 254 18.3
2020-Sep-19 04:01 254 18.3
2020-Sep-19 03:56 254 18.9
2020-Sep-19 03:51 254 18.9
2020-Sep-19 03:46 254 18.9
2020-Sep-19 03:41 254 18.9
2020-Sep-19 03:36 254 18.9
2020-Sep-19 03:26 254 18.9
2020-Sep-19 03:21 255 18.9
2020-Sep-19 03:16 255 18.9
2020-Sep-19 03:11 255 18.9
2020-Sep-19 03:06 255 18.9
2020-Sep-19 03:01 255 18.9
2020-Sep-19 02:56 255 18.9
2020-Sep-19 02:51 255 19.4
2020-Sep-19 02:46 255 19.4
2020-Sep-19 02:41 255 19.4
2020-Sep-19 02:36 255 19.4
2020-Sep-19 02:31 255 19.4
2020-Sep-19 02:26 255 19.4
2020-Sep-19 02:21 256 19.4
2020-Sep-19 02:16 257 19.4
2020-Sep-19 02:11 257 19.4
2020-Sep-19 02:06 257 19.4
2020-Sep-19 02:01 257 19.4
2020-Sep-19 01:56 257 19.4
2020-Sep-19 01:51 257 19.4
2020-Sep-19 01:46 256 19.4
2020-Sep-19 01:41 256 19.4
2020-Sep-19 01:36 256 19.4
2020-Sep-19 01:31 257 19.4
2020-Sep-19 01:26 258 19.4
2020-Sep-19 01:21 258 19.4
2020-Sep-19 01:16 258 19.4
2020-Sep-19 01:11 258 19.4
2020-Sep-19 01:06 258 20.0
2020-Sep-19 01:01 258 20.0
2020-Sep-19 00:56 258 20.0
2020-Sep-19 00:51 258 20.0
2020-Sep-19 00:46 258 20.0
2020-Sep-19 00:41 258 20.0
2020-Sep-19 00:36 258 20.0
2020-Sep-19 00:31 258 20.0
2020-Sep-19 00:26 258 20.0
2020-Sep-19 00:21 258 20.0
2020-Sep-19 00:16 258 20.0
2020-Sep-19 00:11 258 20.0
2020-Sep-19 00:06 258 20.0
2020-Sep-19 00:01 258 20.0
2020-Sep-18 23:56 258 20.0
2020-Sep-18 23:51 266 20.0
2020-Sep-18 23:46 258 20.0
2020-Sep-18 23:41 258 20.6
2020-Sep-18 23:36 258 20.6
2020-Sep-18 23:31 258 20.6
2020-Sep-18 23:26 265 20.6
2020-Sep-18 23:21 272 20.6
2020-Sep-18 23:16 272 20.6
2020-Sep-18 23:11 272 20.6
2020-Sep-18 23:06 272 20.6
2020-Sep-18 23:01 272 20.6
2020-Sep-18 22:56 272 20.6
2020-Sep-18 22:51 272 21.1
2020-Sep-18 22:46 272 21.1
2020-Sep-18 22:41 272 21.1
2020-Sep-18 22:36 272 21.1
2020-Sep-18 22:31 272 21.1
2020-Sep-18 22:26 273 21.7
2020-Sep-18 22:21 273 21.7
2020-Sep-18 22:16 273 21.7
2020-Sep-18 22:11 273 21.7
2020-Sep-18 22:06 273 21.7
2020-Sep-18 22:01 273 21.7
2020-Sep-18 21:56 273 22.2
2020-Sep-18 21:51 273 22.2
2020-Sep-18 21:46 273 22.2
2020-Sep-18 21:41 273 22.2
2020-Sep-18 21:36 275 22.2
2020-Sep-18 21:31 276 22.2
2020-Sep-18 21:26 276 22.2
2020-Sep-18 21:21 276 22.2
2020-Sep-18 21:16 276 22.8
2020-Sep-18 21:11 276 22.8
2020-Sep-18 21:06 277 22.8
2020-Sep-18 21:01 277 22.8
2020-Sep-18 20:56 277 22.8
2020-Sep-18 20:51 277 22.8
2020-Sep-18 20:46 277 22.8
2020-Sep-18 20:41 277 22.8
2020-Sep-18 20:36 229 22.8
2020-Sep-18 20:31 229 22.8
2020-Sep-18 20:26 238 22.8
2020-Sep-18 20:21 238 22.8
2020-Sep-18 20:16 238 23.3
2020-Sep-18 20:11 238 23.3
2020-Sep-18 20:06 239 23.3
2020-Sep-18 20:01 238 23.3
2020-Sep-18 19:56 248 23.9
2020-Sep-18 19:51 261 23.9
2020-Sep-18 19:46 243 23.3
2020-Sep-18 19:41 265 23.3
2020-Sep-18 19:36 254 23.3
2020-Sep-18 19:31 253 23.9
2020-Sep-18 19:26 215 23.9
2020-Sep-18 19:21 213 23.9
2020-Sep-18 19:16 213 23.9
2020-Sep-18 19:11 200 23.9
2020-Sep-18 19:06 185 23.9
2020-Sep-18 19:01 192 23.9
2020-Sep-18 18:56 198 23.9
2020-Sep-18 18:51 23.9
2020-Sep-18 18:46 152 23.9
2020-Sep-18 18:41 195 23.9
2020-Sep-18 18:36 136 23.9
2020-Sep-18 18:31 113 23.9
2020-Sep-18 18:26 177 23.9
2020-Sep-18 18:21 177 23.9
2020-Sep-18 18:16 177 23.9
2020-Sep-18 18:11 182 23.9
2020-Sep-18 18:06 184 23.9
2020-Sep-18 18:01 139 23.9
2020-Sep-18 17:56 167 23.9
2020-Sep-18 17:51 175 23.9
2020-Sep-18 17:46 191 24.4
2020-Sep-18 17:41 141 24.4
2020-Sep-18 17:36 119 24.4
2020-Sep-18 17:31 103 24.4
2020-Sep-18 17:26 139 24.4
2020-Sep-18 17:21 115 24.4
2020-Sep-18 17:16 170 25.0
2020-Sep-18 17:11 172 25.0
2020-Sep-18 17:06 157 25.0
2020-Sep-18 17:01 134 25.0
2020-Sep-18 16:51 186 25.0
2020-Sep-18 16:46 165 25.0
2020-Sep-18 16:41 186 25.6
2020-Sep-18 16:36 173 25.6
2020-Sep-18 16:31 180 25.6
2020-Sep-18 16:26 175 25.6
2020-Sep-18 16:21 110 25.6
2020-Sep-18 16:16 191 25.6
2020-Sep-18 16:11 182 25.6
2020-Sep-18 16:06 186 25.6
2020-Sep-18 16:01 182 25.6
2020-Sep-18 15:56 213 25.6
2020-Sep-18 15:51 192 25.6
2020-Sep-18 15:46 140 25.0
2020-Sep-18 15:41 200 25.0
2020-Sep-18 15:36 162 25.6
2020-Sep-18 15:31 178 25.6
2020-Sep-18 15:26 188 25.6
2020-Sep-18 15:21 187 25.6
2020-Sep-18 15:16 178 25.6
2020-Sep-18 15:11 200 25.0
2020-Sep-18 15:06 153 24.4
2020-Sep-18 15:01 191 24.4
2020-Sep-18 14:56 199 24.4
2020-Sep-18 14:51 194 25.0
2020-Sep-18 14:46 214 24.4
2020-Sep-18 14:41 186 25.0
2020-Sep-18 14:36 185 24.4
2020-Sep-18 14:31 195 24.4
2020-Sep-18 14:26 215 23.9
2020-Sep-18 14:21 213 23.9
2020-Sep-18 14:11 178 23.3
2020-Sep-18 14:06 191 23.9
2020-Sep-18 14:01 154 23.9
2020-Sep-18 13:56 138 23.9
2020-Sep-18 13:51 195 23.9
2020-Sep-18 13:46 186 24.4
2020-Sep-18 13:41 183 24.4
2020-Sep-18 13:36 199 24.4
2020-Sep-18 13:31 178 24.4
2020-Sep-18 13:26 182 25.0
2020-Sep-18 13:21 171 25.0
2020-Sep-18 13:16 192 25.0
2020-Sep-18 13:11 181 25.0
2020-Sep-18 13:06 180 25.0
2020-Sep-18 13:01 185 24.4
2020-Sep-18 12:56 185 24.4
2020-Sep-18 12:51 162 24.4
2020-Sep-18 12:46 190 24.4
2020-Sep-18 12:41 167 24.4
2020-Sep-18 12:36 181 24.4
2020-Sep-18 12:31 24.4
2020-Sep-18 12:26 24.4
2020-Sep-18 12:21 174 24.4
2020-Sep-18 12:16 182 24.4
2020-Sep-18 12:11 154 24.4
2020-Sep-18 12:06 138 24.4
2020-Sep-18 12:01 149 24.4
2020-Sep-18 11:56 096 24.4
2020-Sep-18 11:51 24.4
2020-Sep-18 11:46 137 24.4
2020-Sep-18 11:41 108 24.4
2020-Sep-18 11:36 104 24.4
2020-Sep-18 11:31 182 24.4
2020-Sep-18 11:26 185 24.4
2020-Sep-18 11:21 155 24.4
2020-Sep-18 11:16 142 24.4
2020-Sep-18 11:11 194 24.4
2020-Sep-18 11:06 182 24.4
2020-Sep-18 11:01 185 23.9
2020-Sep-18 10:56 142 23.9
2020-Sep-18 10:51 134 23.9
2020-Sep-18 10:46 144 23.9
2020-Sep-18 10:41 144 23.9
2020-Sep-18 10:36 144 23.9
2020-Sep-18 10:31 144 23.9
2020-Sep-18 10:26 143 23.9
2020-Sep-18 10:21 107 23.3
2020-Sep-18 10:16 144 23.3
2020-Sep-18 10:11 151 23.3
2020-Sep-18 10:06 151 23.3
2020-Sep-18 10:01 156 23.3
2020-Sep-18 09:56 170 22.8
2020-Sep-18 09:51 171 22.8
2020-Sep-18 09:46 132 22.8
2020-Sep-18 09:41 191 22.8
2020-Sep-18 09:36 191 22.8
2020-Sep-18 09:31 191 22.2
2020-Sep-18 09:26 191 22.2
2020-Sep-18 09:21 191 22.2
2020-Sep-18 09:16 103 21.7
2020-Sep-18 09:11 084 21.7
2020-Sep-18 09:06 093 21.7
2020-Sep-18 09:01 153 21.7
2020-Sep-18 08:56 153 21.1
2020-Sep-18 08:51 153 21.1
2020-Sep-18 08:46 153 21.1
2020-Sep-18 08:41 149 21.1
2020-Sep-18 08:36 174 21.1
2020-Sep-18 08:31 179 21.1
2020-Sep-18 08:26 179 21.1
2020-Sep-18 08:21 169 20.6
2020-Sep-18 08:16 169 20.6
2020-Sep-18 08:11 269 20.6
2020-Sep-18 08:06 269 20.6
2020-Sep-18 08:01 269 20.6
2020-Sep-18 07:56 269 20.6
2020-Sep-18 07:51 269 20.6
2020-Sep-18 07:46 269 20.6
2020-Sep-18 07:41 269 20.6
2020-Sep-18 07:36 190 21.1
2020-Sep-18 07:31 172 21.1
2020-Sep-18 07:26 182 21.1
2020-Sep-18 07:21 313 21.7
2020-Sep-18 07:16 011 21.7
2020-Sep-18 07:11 274 21.7
2020-Sep-18 07:06 319 22.2
2020-Sep-18 07:01 311 22.2
2020-Sep-18 06:56 208 22.2
2020-Sep-18 06:51 235 22.2
2020-Sep-18 06:46 295 22.8
2020-Sep-18 06:41 240 22.8
2020-Sep-18 06:36 012 22.8
2020-Sep-18 06:31 285 22.8
2020-Sep-18 06:26 345 22.8
2020-Sep-18 06:21 298 22.8
2020-Sep-18 06:16 030 22.8
2020-Sep-18 06:11 329 23.3
2020-Sep-18 06:06 026 23.3
2020-Sep-18 06:01 333 23.3
2020-Sep-18 05:56 012 23.3
2020-Sep-18 05:51 012 23.9
2020-Sep-18 05:46 104 23.9
2020-Sep-18 05:41 032 23.3
2020-Sep-18 05:36 286 23.3
2020-Sep-18 05:31 031 23.3
2020-Sep-18 05:26 064 22.8
2020-Sep-18 05:21 351 22.8
2020-Sep-18 05:16 350 22.8
2020-Sep-18 05:11 265 22.2
2020-Sep-18 05:06 265 22.2
2020-Sep-18 05:01 263 22.2
2020-Sep-18 04:56 265 22.2
2020-Sep-18 04:51 265 22.2
2020-Sep-18 04:46 265 22.2
2020-Sep-18 04:41 265 22.2
2020-Sep-18 04:36 265 22.2
2020-Sep-18 04:31 265 22.2
2020-Sep-18 04:26 265 22.2
2020-Sep-18 04:21 265 22.2
2020-Sep-18 04:16 265 22.2
2020-Sep-18 04:11 265 22.2
2020-Sep-18 04:06 265 22.2
2020-Sep-18 04:01 265 22.2
2020-Sep-18 03:56 265 21.7
2020-Sep-18 03:51 265 21.7
2020-Sep-18 03:46 263 21.7
2020-Sep-18 03:41 252 21.7
2020-Sep-18 03:36 252 21.7
2020-Sep-18 03:31 252 21.7
2020-Sep-18 03:26 252 21.7
2020-Sep-18 03:21 252 21.7
2020-Sep-18 03:16 252 21.7
2020-Sep-18 03:11 252 21.7
2020-Sep-18 03:06 252 21.7
2020-Sep-18 03:01 254 21.7
2020-Sep-18 02:56 254 22.2
2020-Sep-18 02:51 254 22.2
2020-Sep-18 02:46 256 22.2
2020-Sep-18 02:41 256 22.2
2020-Sep-18 02:36 256 22.2
2020-Sep-18 02:31 256 22.2
2020-Sep-18 02:26 255 22.2
2020-Sep-18 02:21 255 22.8
2020-Sep-18 02:16 255 22.8
2020-Sep-18 02:11 255 22.8
2020-Sep-18 02:06 255 22.8
2020-Sep-18 02:01 255 22.8
2020-Sep-18 01:56 255 22.8
2020-Sep-18 01:51 255 22.8
2020-Sep-18 01:46 255 22.8
2020-Sep-18 01:41 254 22.8
2020-Sep-18 01:36 254 22.2
2020-Sep-18 01:31 247 22.2
2020-Sep-18 01:26 247 22.8
2020-Sep-18 01:21 247 22.8
2020-Sep-18 01:16 236 22.8
2020-Sep-18 01:11 236 22.8
2020-Sep-18 01:06 236 22.8
2020-Sep-18 01:01 236 22.8
2020-Sep-18 00:56 235 22.8
2020-Sep-18 00:51 233 22.8
2020-Sep-18 00:46 229 22.8
2020-Sep-18 00:41 234 22.8
2020-Sep-18 00:36 234 23.3
2020-Sep-18 00:31 234 23.3
2020-Sep-18 00:26 234 23.3
2020-Sep-18 00:21 234 23.3
2020-Sep-18 00:16 233 23.9
2020-Sep-18 00:11 232 23.9
2020-Sep-18 00:06 259 23.9
2020-Sep-18 00:01 237 23.9
2020-Sep-17 23:56 233 23.9
2020-Sep-17 23:51 209 24.4
2020-Sep-17 23:46 204 24.4
2020-Sep-17 23:36 207 24.4
2020-Sep-17 23:31 188 24.4
2020-Sep-17 23:26 186 24.4
2020-Sep-17 23:21 203 24.4
2020-Sep-17 23:16 186 24.4
2020-Sep-17 23:11 197 24.4
2020-Sep-17 23:06 155 24.4
2020-Sep-17 23:01 150 24.4
2020-Sep-17 22:56 188 24.4
2020-Sep-17 22:51 179 25.0
2020-Sep-17 22:46 226 25.0
2020-Sep-17 22:41 153 25.0
2020-Sep-17 22:36 171 25.0
2020-Sep-17 22:33 182 25.0
2020-Sep-17 22:26 184 25.0
2020-Sep-17 22:21 171 25.0
2020-Sep-17 22:16 201 25.0
2020-Sep-17 22:11 169 25.0
2020-Sep-17 22:06 163 25.0
2020-Sep-17 22:01 184 25.0
2020-Sep-17 21:56 211 25.0
2020-Sep-17 21:51 189 25.0
2020-Sep-17 21:46 194 25.0
2020-Sep-17 21:41 202 25.0
2020-Sep-17 21:36 192 25.0
2020-Sep-17 21:31 170 25.0
2020-Sep-17 21:26 187 25.0
2020-Sep-17 21:21 185 25.0
2020-Sep-17 21:16 192 24.4
2020-Sep-17 21:11 194 24.4
2020-Sep-17 21:06 197 25.0
2020-Sep-17 21:01 203 24.4
2020-Sep-17 20:56 203 25.0
2020-Sep-17 20:51 189 25.0
2020-Sep-17 20:46 175 25.0
2020-Sep-17 20:41 198 25.0
2020-Sep-17 20:36 186 25.0
2020-Sep-17 20:31 195 24.4
2020-Sep-17 20:26 184 24.4
2020-Sep-17 20:21 212 24.4
2020-Sep-17 20:16 188 24.4
2020-Sep-17 20:11 204 24.4
2020-Sep-17 20:06 188 24.4
2020-Sep-17 20:01 169 25.0
2020-Sep-17 19:56 178 25.0
2020-Sep-17 19:51 188 25.0
2020-Sep-17 19:46 180 25.0
2020-Sep-17 19:41 214 25.0
2020-Sep-17 19:36 173 25.0
2020-Sep-17 19:31 183 25.0
2020-Sep-17 19:26 182 25.0
2020-Sep-17 19:21 228 25.0
2020-Sep-17 19:16 186 25.0
2020-Sep-17 19:11 183 25.0
2020-Sep-17 19:06 183 25.0
2020-Sep-17 19:01 167 25.0
2020-Sep-17 18:56 123 25.0
2020-Sep-17 18:51 142 25.0
2020-Sep-17 18:46 142 25.6
2020-Sep-17 18:41 189 25.6
2020-Sep-17 18:36 192 25.6
2020-Sep-17 18:31 182 25.6
2020-Sep-17 18:26 189 25.6
2020-Sep-17 18:21 204 25.6
2020-Sep-17 18:16 174 25.6
2020-Sep-17 18:11 186 25.6
2020-Sep-17 18:06 124 25.6
2020-Sep-17 18:01 140 25.6
2020-Sep-17 17:56 124 25.6
2020-Sep-17 17:51 151 25.6
2020-Sep-17 17:46 148 25.6
2020-Sep-17 17:41 104 25.6
2020-Sep-17 17:36 163 25.6
2020-Sep-17 17:31 132 26.1
2020-Sep-17 17:26 090 26.1
2020-Sep-17 17:21 100 26.1
2020-Sep-17 17:16 169 26.1
2020-Sep-17 17:11 194 26.7
2020-Sep-17 17:06 225 26.7
2020-Sep-17 17:01 190 26.7
2020-Sep-17 16:56 202 26.7
2020-Sep-17 16:51 177 27.2
2020-Sep-17 16:46 189 27.2
2020-Sep-17 16:41 219 27.2
2020-Sep-17 16:36 172 27.8
2020-Sep-17 16:31 183 27.8
2020-Sep-17 16:26 178 27.8
2020-Sep-17 16:21 225 27.8
2020-Sep-17 16:16 193 27.8
2020-Sep-17 16:11 186 28.3
2020-Sep-17 16:06 188 28.3
2020-Sep-17 16:01 142 28.3
2020-Sep-17 15:56 190 28.3
2020-Sep-17 15:51 182 28.3
2020-Sep-17 15:46 150 28.3
2020-Sep-17 15:41 180 28.3
2020-Sep-17 15:36 178 28.3
2020-Sep-17 15:31 157 28.3
2020-Sep-17 15:26 184 28.3
2020-Sep-17 15:21 183 28.3
2020-Sep-17 15:16 167 28.3
2020-Sep-17 15:11 115 28.3
2020-Sep-17 15:06 154 28.3
2020-Sep-17 15:01 180 28.9
2020-Sep-17 14:56 169 28.9
2020-Sep-17 14:51 178 28.3
2020-Sep-17 14:46 137 28.3
2020-Sep-17 14:41 174 28.3
2020-Sep-17 14:36 186 28.3
2020-Sep-17 14:31 117 28.3
2020-Sep-17 14:26 146 28.3
2020-Sep-17 14:21 158 28.3
2020-Sep-17 14:16 168 28.3
2020-Sep-17 14:11 178 28.3
2020-Sep-17 14:06 190 27.8
2020-Sep-17 14:01 188 27.8
2020-Sep-17 13:56 165 27.8
2020-Sep-17 13:51 126 27.8
2020-Sep-17 13:46 086 27.8
2020-Sep-17 13:41 148 27.8
2020-Sep-17 13:36 107 27.8
2020-Sep-17 13:31 115 27.8
2020-Sep-17 13:26 148 27.8
2020-Sep-17 13:21 172 27.8
2020-Sep-17 13:16 165 27.2
2020-Sep-17 13:11 117 27.2
2020-Sep-17 13:06 201 27.2
2020-Sep-17 13:01 192 27.2
2020-Sep-17 12:56 132 27.2
2020-Sep-17 12:51 190 26.7
2020-Sep-17 12:46 172 26.7
2020-Sep-17 12:41 054 26.7
2020-Sep-17 12:36 155 26.1
2020-Sep-17 12:31 155 26.1
2020-Sep-17 12:26 188 26.1
2020-Sep-17 12:21 191 26.1
2020-Sep-17 12:16 133 26.1
2020-Sep-17 12:11 123 26.7
2020-Sep-17 12:06 084 26.7
2020-Sep-17 12:01 173 26.7
2020-Sep-17 11:56 188 26.7
2020-Sep-17 11:51 167 26.7
2020-Sep-17 11:46 145 26.7
2020-Sep-17 11:41 205 26.7
2020-Sep-17 11:36 159 26.7
2020-Sep-17 11:31 156 26.1
2020-Sep-17 11:26 161 26.1
2020-Sep-17 11:21 155 26.1
2020-Sep-17 11:16 185 26.1
2020-Sep-17 11:11 187 26.1
2020-Sep-17 11:06 188 26.1
2020-Sep-17 11:01 189 26.1
2020-Sep-17 10:56 189 26.1
2020-Sep-17 10:51 189 25.6
2020-Sep-17 10:46 189 25.6
2020-Sep-17 10:41 189 25.6
2020-Sep-17 10:36 189 25.6
2020-Sep-17 10:31 189 25.6
2020-Sep-17 10:26 189 25.6
2020-Sep-17 10:21 189 25.6
2020-Sep-17 10:16 189 25.6
2020-Sep-17 10:11 189 25.6
2020-Sep-17 10:06 189 25.6
2020-Sep-17 10:01 189 25.6
2020-Sep-17 09:56 188 25.6
2020-Sep-17 09:51 188 25.6
2020-Sep-17 09:46 190 25.6
2020-Sep-17 09:41 191 25.0
2020-Sep-17 09:36 196 25.0
2020-Sep-17 09:31 196 25.0
2020-Sep-17 09:26 196 24.4
2020-Sep-17 09:21 196 24.4
2020-Sep-17 09:16 196 23.9
2020-Sep-17 09:11 196 23.9
2020-Sep-17 09:06 221 23.9
2020-Sep-17 09:01 223 23.9